FENGYUN 3A

Satellite information

Favourite Embed

Satellite Type and Status

PAYLOADIN ORBIT

Key statistics

Satellite FENGYUN 3A at a glance.

Uptime

6312

Days in orbit

Revolutions

≈ 14.2

Per day

Orbit

SSO

Sun Synchronous Orbit

Inclination

98.7

Latest

Satellite identification and parameters

Extended collection of information and parameters for FENGYUN 3A.

Object identification

Identified? True

Debris? False

Object name: FENGYUN 3A

International designator: 2008-026A

Object number (NORAD): 32958

Object ID (CCSDS): 32958

Country: PEOPLES REPUBLIC OF CHINA (PRC)

Current information (Y/N): Y

RCS size: LARGE

Orbital parameters

Period: 101.446 minutes

Inclination: 98.6521 deg

SMA: 7205.285 km

Apoapsis: 832.831 km

Periapsis: 821.47 km

RAAN: 191.5591 deg

Eccentricy: 0.00078837

Argument of periapsis: 219.135 deg

Mean anomaly: 140.9257 deg

Mean motion: 14.19469319 rev/day

Mean motion (dot): 0.00000157 rev/day2

B* drag term: 0.000095262482 1/REarth

Two-line elements (TLE)

Creation date: Sept. 7, 2025, 3:09 a.m.

Reference frame: TEME

Reference center: EARTH

Epoch: Sept. 6, 2025, 9:44 p.m. UTC

TLE line 0: 0 FENGYUN 3A

TLE line 1: 1 32958U 08026A 25249.90615217 .00000157 00000-0 95262-4 0 9997

TLE line 2: 2 32958 98.6521 191.5591 0007884 219.1350 140.9257 14.19469319895219

Live tracking on map

Real-time ground track for satellite FENGYUN 3A.

In-orbit conjunctions

There are no conjunctions computed for FENGYUN 3A, at the moment. Check back to stay up to date, as we update our databases every day.

Go to all conjunctions

Associated space launch

Chinese 2nd generation polar orbiting meteorological satellite

FENGYUN 3A was lifted into orbit during the mission ‘Long March 4C | Feng Yun 3A’, on board a Long March 4C space rocket.

The launch took place on May 27, 2008, 3:02 a.m. from Launch Complex 7.

For more information about the launch, click the button.

Launch to space Long March 4C | Feng Yun 3A
Long March 4C | Feng Yun 3A

Agency: N/A

Status: Launch Successful

Launch date: May 27, 2008, 3:02 a.m. UTC

Rocket: Long March 4C

Launch pad: Launch Complex 7

Location: Taiyuan Satellite Launch Center, People's Republic of China

...

Latest news about this satellite

There are no fresh news available about this satellite. Check back as we update our databases every day.


Newsletter sign-up

Weekly statistics, charts and insights to help you stay on top of the space industry.